FW2969 Weather Reports


time (UTC)temp
C
wind
direction
speed
KPH
gust
KPH
rain 1hr
cm
rain 24hr
cm
rain mn
cm
humidity
%
barometer
mb
20260508021550 15 94 0.0 9.7 0.00 0.03 0.00 56 1015.8
20260508020053 15 113 3.2 12.9 0.00 0.03 0.00 56 1015.8
20260508014551 15 98 3.2 9.7 0.00 0.03 0.00 56 1015.9
20260508013043 14 103 1.6 14.5 0.00 0.03 0.00 58 1016.0
20260508011538 13 89 0.0 11.3 0.00 0.03 0.00 61 1016.0
20260508010047 13 71 0.0 9.7 0.00 0.03 0.00 66 1016.2
20260508004542 11 84 1.6 9.7 0.00 0.03 0.00 77 1016.4
20260508003028 11 88 0.0 3.2 0.00 0.03 0.00 86 1016.4
20260508001533 11 136 0.0 3.2 0.00 0.03 0.00 87 1016.6
20260508000024 11 43 0.0 3.2 0.00 0.03 0.00 88 1016.8
20260507234523 11 61 0.0 1.6 0.00 0.03 0.00 89 1016.7
20260507233022 11 65 0.0 0.0 0.00 0.03 0.00 88 1016.7
20260507231522 11 65 0.0 0.0 0.00 0.03 0.00 88 1016.8
20260507230018 12 65 0.0 1.6 0.00 0.03 0.00 87 1016.8
20260507224516 12 342 0.0 1.6 0.00 0.03 0.00 87 1016.9
20260507223016 12 341 0.0 4.8 0.00 0.03 0.00 87 1016.9
20260507221515 12 71 0.0 1.6 0.00 0.03 0.00 87 1017.1
20260507220014 12 71 0.0 0.0 0.00 0.03 0.00 85 1017.1
20260507214511 12 71 0.0 1.6 0.00 0.03 0.00 85 1017.2
20260507213014 12 71 0.0 1.6 0.00 0.03 0.00 85 1017.3
20260507211507 12 71 0.0 1.6 0.00 0.03 0.00 84 1017.1
20260507210005 12 71 0.0 0.0 0.00 0.03 0.00 84 1017.1
20260507204505 12 71 0.0 3.2 0.00 0.03 0.03 84 1017.1
20260507203004 13 332 0.0 4.8 0.00 0.03 0.03 83 1017.1
20260507201504 13 328 0.0 3.2 0.00 0.03 0.03 82 1016.9
20260507200003 13 12 0.0 3.2 0.00 0.03 0.03 82 1016.9
20260507194503 13 15 0.0 0.0 0.00 0.03 0.03 82 1017.0
20260507193003 13 15 0.0 1.6 0.00 0.03 0.03 82 1017.1
20260507191503 13 9 0.0 3.2 0.00 0.03 0.03 80 1017.1
20260507190006 13 61 0.0 3.2 0.00 0.03 0.03 79 1017.1
20260507184502 13 359 0.0 6.4 0.00 0.03 0.03 77 1017.4
20260507183100 13 28 0.0 9.7 0.00 0.03 0.03 77 1017.5
20260507181507 13 313 0.0 3.2 0.00 0.03 0.03 77 1017.4
20260507180011 13 7 0.0 4.8 0.00 0.03 0.03 77 1017.3
20260507174504 13 23 0.0 3.2 0.00 0.03 0.03 78 1017.3
20260507173008 13 73 0.0 0.0 0.00 0.03 0.03 75 1017.2
20260507171502 13 73 0.0 1.6 0.00 0.03 0.03 71 1017.1
20260507170003 13 26 0.0 3.2 0.00 0.03 0.03 70 1017.0
20260507164503 13 344 0.0 3.2 0.00 0.03 0.03 72 1016.9
20260507163001 14 327 0.0 3.2 0.00 0.03 0.03 75 1016.8
20260507161614 15 301 0.0 1.6 0.00 0.03 0.03 74 1016.8
20260507160104 15 297 0.0 3.2 0.00 0.03 0.03 71 1016.7
20260507154559 16 319 1.6 6.4 0.00 0.03 0.03 69 1016.8
20260507153100 17 272 1.6 6.4 0.00 0.03 0.03 66 1016.9
20260507151603 17 330 1.6 6.4 0.00 0.03 0.03 64 1016.9
20260507150057 17 37 0.0 11.3 0.00 0.03 0.03 64 1017.0
20260507144612 17 311 1.6 9.7 0.00 0.03 0.03 61 1016.9
20260507143102 17 304 3.2 14.5 0.00 0.03 0.03 61 1016.9
20260507141600 17 282 0.0 9.7 0.00 0.03 0.03 61 1016.9
20260507140051 17 296 0.0 11.3 0.00 0.03 0.03 61 1017.0
20260507134554 17 336 1.6 12.9 0.00 0.03 0.03 63 1016.9
20260507133134 17 326 3.2 17.7 0.00 0.03 0.03 63 1017.0
20260507131548 17 329 3.2 17.7 0.00 0.03 0.03 61 1017.0
20260507130059 17 271 3.2 14.5 0.00 0.03 0.03 64 1017.0
20260507124549 17 351 6.4 17.7 0.00 0.03 0.03 62 1017.1
20260507123048 17 245 4.8 14.5 0.00 0.03 0.03 64 1017.2
20260507121544 17 301 3.2 12.9 0.00 0.03 0.03 64 1017.3
20260507120042 17 287 3.2 14.5 0.00 0.03 0.03 65 1017.4
20260507114552 17 334 8.0 16.1 0.00 0.03 0.03 67 1017.5
20260507113040 17 311 4.8 14.5 0.00 0.03 0.03 67 1017.6
20260507111538 17 331 3.2 9.7 0.00 0.03 0.03 68 1017.7
20260507110041 16 305 4.8 14.5 0.00 0.03 0.03 69 1017.9
20260507104535 16 283 4.8 16.1 0.00 0.03 0.03 70 1017.9
20260507103042 16 290 6.4 14.5 0.00 0.03 0.03 70 1018.0
20260507101537 16 308 3.2 12.9 0.00 0.03 0.03 71 1017.9
20260507100035 16 236 6.4 14.5 0.00 0.03 0.03 71 1017.9
20260507094534 16 250 3.2 14.5 0.00 0.03 0.03 74 1018.1
20260507093029 16 332 4.8 16.1 0.00 0.03 0.03 73 1018.3
20260507091531 15 280 3.2 16.1 0.00 0.03 0.03 74 1018.4
20260507090024 15 296 3.2 12.9 0.00 0.03 0.03 73 1018.5
20260507084524 15 287 4.8 16.1 0.00 0.05 0.03 74 1018.5
20260507083021 15 290 1.6 9.7 0.00 0.05 0.03 73 1018.7
20260507081520 15 259 3.2 9.7 0.00 0.05 0.03 74 1018.8
20260507080019 14 299 4.8 11.3 0.00 0.05 0.03 75 1018.8
20260507074518 14 301 4.8 12.9 0.00 0.05 0.03 74 1018.8
20260507073018 15 310 3.2 9.7 0.00 0.05 0.03 69 1018.5
20260507071518 15 232 1.6 6.4 0.00 0.05 0.03 69 1018.7
20260507070020 14 283 1.6 12.9 0.00 0.05 0.03 67 1018.7
20260507064513 13 43 1.6 6.4 0.00 0.05 0.03 70 1018.9
20260507063007 13 352 1.6 11.3 0.00 0.05 0.03 74 1018.8
20260507061502 12 353 1.6 8.0 0.00 0.05 0.03 81 1018.8
20260507060100 12 285 3.2 8.0 0.00 0.05 0.03 81 1018.8
20260507054558 11 288 0.0 4.8 0.00 0.05 0.03 80 1018.7
20260507053107 11 307 0.0 4.8 0.00 0.05 0.03 83 1018.5
20260507051550 11 295 0.0 4.8 0.00 0.05 0.03 88 1018.2
20260507050046 10 299 0.0 3.2 0.00 0.05 0.03 91 1018.2
20260507044556 9 18 0.0 3.2 0.00 0.05 0.03 94 1018.1
20260507043038 8 342 0.0 3.2 0.00 0.05 0.03 95 1018.1
20260507041544 8 58 0.0 3.2 0.00 0.05 0.03 95 1017.9
20260507040042 8 31 0.0 3.2 0.00 0.05 0.03 95 1017.8
20260507034541 8 100 0.0 12.9 0.00 0.05 0.03 95 1017.6
20260507033044 7 76 0.0 1.6 0.03 0.05 0.03 95 1017.6
20260507031550 7 92 0.0 1.6 0.03 0.05 0.03 95 1017.4
20260507030038 7 92 0.0 1.6 0.03 0.05 0.03 95 1017.2
20260507024534 7 92 0.0 1.6 0.03 0.05 0.03 95 1017.3
20260507023031 7 45 0.0 3.2 0.00 0.03 0.00 95 1017.2